Starlink 3611

operational
NORAD ID: 51779 Int'l Des: 2022-017 Owner: SPXS Country: US Constellation: starlink
LEOCIRCULAR

About Starlink 3611

Description loading...

Live Position

Loading 3D Globe...

Upcoming Passes

Altitude History

Altitude vs Time

uPlot chart will show altitude changes over time

Two-Line Element Set

1 51779U 22017M 25259.11601703 .00000336 00000-0 39215-4 0 9999
2 51779 53.2194 42.8616 0001301 92.0651 268.0490 15.08843549196215
Epoch: Sep 16, 2025 • Age: 8 hours

Current Status

Altitude 539.8 km
Velocity 7.60 km/s
Sub-Earth Point 18.04°N, 102.77°W
Launch Date Feb 25, 2022
Age 3.5 years
Type internet

Technical Details

Classification Payload
Mass 297.00 kg
Dry Mass 275.00 kg
Total Mass 297.00 kg
Length 0.20 m
Diameter 2.80 m
Span 9.00 m
Shape Box + pan
Manufacturer SPXS
Bus Type Starlink
Phase Status In Orbit
Owner/State SPXS/US

Large Constellations

Loading constellations...